GW3943 Weather Reports


time (UTC)temp
C
wind
direction
speed
KPH
gust
KPH
rain 1hr
cm
rain 24hr
cm
rain mn
cm
humidity
%
barometer
mb
20260906125420 22 104 0.0 0.0 0.00 0.00 0.00 99 1011.0
20260906124920 22 77 1.6 1.6 0.00 0.00 0.00 99 1010.9
20260906124416 22 87 4.8 4.8 0.00 0.00 0.00 99 1010.9
20260906123910 22 65 1.6 1.6 0.00 0.00 0.00 99 1010.8
20260906123409 22 36 0.0 1.6 0.00 0.00 0.00 99 1010.8
20260906122904 22 29 3.2 3.2 0.00 0.00 0.00 99 1011.0
20260906122359 21 51 4.8 4.8 0.00 0.00 0.00 99 1010.9
20260906121856 21 83 1.6 3.2 0.00 0.00 0.00 99 1010.9
20260906121351 21 40 3.2 4.8 0.00 0.00 0.00 99 1010.9
20260906120847 21 57 0.0 0.0 0.00 0.00 0.00 99 1010.8
20260906120343 21 60 1.6 1.6 0.00 0.00 0.00 99 1010.8
20260906115839 21 60 1.6 1.6 0.00 0.00 0.00 99 1010.7
20260906115334 21 60 0.0 0.0 0.00 0.00 0.00 99 1010.8
20260906114833 20 60 0.0 0.0 0.00 0.00 0.00 99 1010.5
20260906114329 20 60 1.6 1.6 0.00 0.00 0.00 99 1010.6
20260906113824 20 60 0.0 0.0 0.00 0.00 0.00 99 1010.7
20260906113323 20 60 0.0 0.0 0.00 0.00 0.00 99 1010.5
20260906112818 20 60 0.0 0.0 0.00 0.00 0.00 99 1010.5
20260906112309 20 61 0.0 0.0 0.00 0.00 0.00 99 1010.4
20260906111809 20 61 0.0 0.0 0.00 0.00 0.00 99 1010.6
20260906111308 20 61 0.0 0.0 0.00 0.00 0.00 99 1010.5
20260906110803 20 61 0.0 1.6 0.00 0.00 0.00 99 1010.5
20260906110259 20 61 0.0 0.0 0.00 0.00 0.00 99 1010.3
20260906105758 20 61 0.0 0.0 0.00 0.00 0.00 99 1010.0
20260906105254 20 61 0.0 0.0 0.00 0.00 0.00 99 1010.1
20260906104749 20 61 0.0 0.0 0.00 0.00 0.00 99 1010.1
20260906104247 20 61 0.0 0.0 0.00 0.00 0.00 99 1010.0
20260906103745 20 61 0.0 0.0 0.00 0.00 0.00 99 1009.9
20260906103240 20 61 0.0 0.0 0.00 0.00 0.00 99 1009.8
20260906102736 20 61 0.0 0.0 0.00 0.00 0.00 99 1009.7
20260906102234 20 61 0.0 0.0 0.00 0.00 0.00 99 1009.8
20260906101729 20 61 0.0 0.0 0.00 0.00 0.00 99 1009.5
20260906101219 20 64 0.0 0.0 0.00 0.00 0.00 99 1009.6
20260906100714 20 64 0.0 0.0 0.00 0.00 0.00 99 1009.6
20260906100209 20 64 0.0 0.0 0.00 0.00 0.00 99 1009.7
20260906095703 20 64 0.0 0.0 0.00 0.00 0.00 99 1009.3
20260906095159 20 64 0.0 0.0 0.00 0.00 0.00 99 1009.5
20260906094657 20 64 0.0 0.0 0.00 0.00 0.00 99 1009.2
20260906094153 20 64 0.0 0.0 0.00 0.00 0.00 99 1009.3
20260906093650 20 64 0.0 0.0 0.00 0.00 0.00 99 1009.3
20260906093150 20 64 0.0 0.0 0.00 0.00 0.00 99 1009.2
20260906092644 20 64 0.0 0.0 0.00 0.00 0.00 99 1009.2
20260906092139 20 64 0.0 0.0 0.00 0.00 0.00 99 1009.5
20260906091635 20 64 0.0 0.0 0.00 0.00 0.00 99 1009.2
20260906091131 20 64 0.0 0.0 0.00 0.00 0.00 99 1009.4
20260906090626 20 64 0.0 0.0 0.00 0.00 0.00 99 1009.3
20260906090121 20 64 0.0 0.0 0.00 0.00 0.00 99 1009.4
20260906085620 20 64 0.0 0.0 0.00 0.00 0.00 99 1009.3
20260906085114 20 71 1.6 1.6 0.00 0.00 0.00 99 1009.1
20260906084609 20 71 0.0 0.0 0.00 0.00 0.00 99 1009.1
20260906084108 20 71 0.0 0.0 0.00 0.00 0.00 99 1008.9
20260906083604 20 71 0.0 0.0 0.00 0.00 0.00 99 1009.1
20260906083103 20 71 0.0 0.0 0.00 0.00 0.00 99 1008.8
20260906082559 20 71 0.0 0.0 0.00 0.00 0.00 99 1009.0
20260906082054 20 71 0.0 0.0 0.00 0.00 0.00 99 1009.2
20260906081550 20 71 0.0 0.0 0.00 0.00 0.00 99 1008.9
20260906081045 20 71 0.0 0.0 0.00 0.00 0.00 99 1009.1
20260906080542 21 71 0.0 0.0 0.00 0.00 0.00 99 1008.8
20260906080037 21 71 0.0 0.0 0.00 0.00 0.00 99 1008.9
20260906075531 21 71 0.0 0.0 0.00 0.00 0.00 99 1009.0
20260906075026 21 71 0.0 0.0 0.00 0.00 0.00 99 1009.0
20260906074521 21 71 0.0 0.0 0.00 0.00 0.00 99 1009.0
20260906074020 21 71 0.0 0.0 0.00 0.00 0.00 99 1009.0
20260906073515 21 71 0.0 0.0 0.00 0.00 0.00 99 1009.2
20260906073011 21 71 0.0 0.0 0.00 0.00 0.00 99 1009.1
20260906072505 21 71 0.0 0.0 0.00 0.00 0.00 99 1008.9
20260906072002 21 71 0.0 0.0 0.00 0.00 0.00 99 1009.1
20260906071458 21 71 0.0 0.0 0.00 0.00 0.00 99 1009.2
20260906070953 21 71 0.0 0.0 0.00 0.00 0.00 99 1009.1
20260906070448 21 71 0.0 0.0 0.00 0.00 0.00 99 1009.1
20260906065944 21 71 0.0 0.0 0.00 0.00 0.00 99 1009.0
20260906065438 21 71 0.0 0.0 0.00 0.00 0.00 99 1008.9
20260906064934 21 71 0.0 0.0 0.00 0.00 0.00 99 1009.1
20260906064429 21 71 0.0 0.0 0.00 0.00 0.00 99 1009.2
20260906063924 21 71 0.0 0.0 0.00 0.00 0.00 99 1009.4
20260906063419 21 71 0.0 0.0 0.00 0.00 0.00 99 1009.5
20260906062914 21 71 0.0 0.0 0.00 0.00 0.00 99 1009.2
20260906062409 21 71 0.0 0.0 0.00 0.00 0.00 99 1009.4
20260906061904 21 71 0.0 0.0 0.00 0.00 0.00 99 1009.4
20260906061400 21 71 0.0 0.0 0.00 0.00 0.00 99 1009.6
20260906060854 21 71 0.0 0.0 0.00 0.00 0.00 99 1009.4
20260906060352 21 71 0.0 0.0 0.00 0.00 0.00 99 1009.9
20260906055848 21 71 0.0 0.0 0.00 0.00 0.00 99 1009.5
20260906055343 21 71 0.0 0.0 0.00 0.00 0.00 99 1009.9
20260906054838 21 70 0.0 0.0 0.00 0.00 0.00 99 1009.8
20260906054333 21 70 0.0 1.6 0.00 0.00 0.00 99 1009.7
20260906053830 21 87 1.6 1.6 0.00 0.00 0.00 99 1009.7
20260906053325 21 122 0.0 0.0 0.00 0.00 0.00 99 1009.8
20260906052820 21 122 0.0 0.0 0.00 0.00 0.00 99 1009.6
20260906052317 21 84 0.0 0.0 0.00 0.00 0.00 99 1009.6
20260906051814 21 82 1.6 1.6 0.00 0.00 0.00 99 1009.9
20260906051313 21 76 0.0 1.6 0.00 0.00 0.00 99 1010.2
20260906050808 21 50 1.6 3.2 0.00 0.00 0.00 99 1010.0
20260906050303 21 69 1.6 1.6 0.00 0.00 0.00 99 1010.0
20260906045802 21 69 0.0 0.0 0.00 0.00 0.00 99 1009.9
20260906045256 21 69 0.0 0.0 0.00 0.00 0.00 99 1009.7
20260906044753 21 69 0.0 0.0 0.00 0.00 0.00 99 1009.5
20260906044247 21 69 0.0 0.0 0.00 0.00 0.00 99 1009.8
20260906043743 21 69 0.0 0.0 0.00 0.00 0.00 99 1009.6
20260906043239 21 69 0.0 0.0 0.00 0.00 0.00 99 1009.6
20260906042738 21 69 0.0 0.0 0.00 0.00 0.00 99 1009.6
20260906042237 21 69 0.0 0.0 0.00 0.00 0.00 99 1009.7
20260906041733 21 69 1.6 1.6 0.00 0.00 0.00 99 1009.7
20260906041228 21 69 0.0 0.0 0.00 0.00 0.00 99 1009.5
20260906040724 21 69 0.0 0.0 0.00 0.00 0.00 99 1009.6
20260906040219 21 70 0.0 0.0 0.00 0.00 0.00 99 1009.5
20260906035715 21 70 0.0 0.0 0.00 0.28 0.28 99 1009.7
20260906035210 21 64 3.2 3.2 0.00 0.28 0.28 99 1009.6
20260906034704 21 78 0.0 1.6 0.00 0.28 0.28 99 1009.8
20260906034159 21 79 0.0 0.0 0.00 0.28 0.28 99 1009.7
20260906033655 21 107 0.0 0.0 0.00 0.28 0.28 99 1009.8
20260906033156 21 60 1.6 1.6 0.00 0.28 0.28 99 1009.5
20260906032651 21 24 0.0 0.0 0.00 0.28 0.28 99 1009.5
20260906032146 21 28 1.6 3.2 0.00 0.28 0.28 99 1010.0
20260906031642 21 25 0.0 0.0 0.13 0.28 0.28 99 1009.8
20260906031137 21 25 0.0 0.0 0.13 0.28 0.28 99 1010.2
20260906030636 21 24 1.6 1.6 0.13 0.28 0.28 99 1010.2
20260906030132 21 300 0.0 0.0 0.00 0.25 0.25 99 1009.9
20260906025631 21 202 0.0 0.0 0.00 0.25 0.25 99 1010.1
20260906025130 21 202 0.0 0.0 0.00 0.25 0.25 99 1010.1
20260906024625 21 202 0.0 0.0 0.00 0.25 0.25 99 1010.2
20260906024119 21 202 0.0 0.0 0.00 0.25 0.25 99 1010.1
20260906023615 21 202 0.0 0.0 0.00 0.25 0.25 99 1010.4
20260906023109 21 202 0.0 0.0 0.00 0.25 0.25 99 1010.2
20260906022605 21 202 1.6 1.6 0.00 0.25 0.25 99 1010.4
20260906022101 21 201 0.0 0.0 0.00 0.25 0.25 99 1010.2
20260906021556 21 202 0.0 0.0 0.00 0.25 0.25 99 1010.3
20260906021055 21 201 0.0 0.0 0.00 0.25 0.25 99 1010.2
20260906020554 21 202 0.0 0.0 0.00 0.25 0.25 99 1010.2
20260906020054 21 171 1.6 1.6 0.00 0.25 0.25 99 1010.3
20260906015553 21 194 1.6 1.6 0.00 0.25 0.25 99 1010.3
20260906015047 21 167 0.0 0.0 0.00 0.25 0.25 99 1010.1
20260906014543 21 203 0.0 0.0 0.00 0.25 0.25 99 1010.4
20260906014038 22 197 3.2 4.8 0.00 0.25 0.25 99 1010.4
20260906013533 22 199 0.0 1.6 0.00 0.25 0.25 99 1010.3
20260906013029 22 196 0.0 0.0 0.00 0.25 0.25 99 1010.0
20260906012524 22 259 3.2 3.2 0.00 0.25 0.25 99 1010.0
20260906012023 22 196 3.2 4.8 0.00 0.25 0.25 99 1010.1
20260906011520 22 191 0.0 0.0 0.00 0.25 0.25 99 1009.8
20260906011019 22 189 3.2 3.2 0.00 0.25 0.25 99 1009.6
20260906010514 22 156 1.6 1.6 0.00 0.25 0.25 99 1009.6
20260906010011 22 190 0.0 1.6 0.00 0.25 0.25 99 1009.6
20260906005509 22 255 1.6 4.8 0.00 0.25 0.25 99 1009.4
20260906005008 22 218 3.2 3.2 0.00 0.25 0.25 99 1009.5
20260906004503 22 241 3.2 4.8 0.00 0.25 0.25 99 1009.5
20260906003958 22 203 3.2 4.8 0.00 0.25 0.25 99 1009.2
20260906003453 22 195 4.8 4.8 0.00 0.25 0.25 99 1009.2
20260906002949 22 89 0.0 0.0 0.00 0.25 0.25 99 1009.0
20260906002449 22 180 0.0 0.0 0.00 0.25 0.25 99 1009.2
20260906001944 22 182 1.6 1.6 0.00 0.25 0.25 99 1009.0
20260906001439 22 200 3.2 3.2 0.00 0.25 0.25 99 1009.0
20260906000929 22 114 1.6 3.2 0.00 0.25 0.25 99 1008.9
20260906000425 22 112 0.0 0.0 0.18 0.25 0.25 99 1009.3
20260905235918 22 113 0.0 0.0 0.30 0.25 0.25 99 1009.3
20260905235413 22 144 0.0 0.0 0.30 0.23 0.23 99 1009.1
20260905234908 22 193 6.4 6.4 0.18 0.20 0.20 99 1009.2
20260905234403 22 190 1.6 3.2 0.13 0.18 0.18 99 1009.4
20260905233858 22 142 3.2 3.2 0.13 0.18 0.18 99 1009.0
20260905233353 22 162 3.2 4.8 0.00 0.15 0.15 99 1008.7
20260905232847 22 159 4.8 4.8 0.00 0.15 0.15 99 1008.6
20260905232343 22 112 0.0 1.6 0.00 0.15 0.15 99 1008.7
20260905231839 22 150 8.0 11.3 0.00 0.15 0.15 99 1008.2
20260905231339 22 141 6.4 9.7 0.00 0.15 0.15 99 1007.8
20260905230835 22 108 6.4 11.3 0.00 0.15 0.15 99 1007.3
20260905230332 22 114 3.2 4.8 0.18 0.15 0.15 99 1007.2
20260905225833 22 80 6.4 6.4 0.48 0.15 0.15 99 1007.3
20260905225327 22 78 3.2 9.7 0.43 0.13 0.13 99 1007.9
20260905224827 23 40 4.8 6.4 0.30 0.10 0.10 99 1009.1
20260905224323 23 34 9.7 12.9 0.30 0.05 0.05 99 1009.8
20260905223818 24 341 9.7 12.9 0.30 0.05 0.05 98 1010.2
20260905223315 26 42 8.0 12.9 0.00 0.00 0.00 90 1009.6
20260905222810 27 235 11.3 14.5 0.00 0.00 0.00 81 1008.5
20260905222309 28 263 24.1 51.5 0.00 0.00 0.00 78 1008.2
20260905221805 31 281 22.5 33.8 0.00 0.00 0.00 80 1008.3
20260905221302 30 183 9.7 14.5 0.00 0.00 0.00 82 1007.5
20260905220757 31 154 1.6 1.6 0.00 0.00 0.00 89 1007.2
20260905220254 31 186 0.0 0.0 0.00 0.00 0.00 86 1007.0
20260905215753 31 195 0.0 0.0 0.00 0.00 0.00 82 1007.5
20260905215249 31 217 1.6 1.6 0.00 0.00 0.00 80 1007.3
20260905214744 31 199 0.0 0.0 0.00 0.00 0.00 84 1006.8
20260905214240 31 199 0.0 0.0 0.00 0.00 0.00 82 1007.2
20260905213735 31 159 1.6 1.6 0.00 0.00 0.00 80 1007.2
20260905213231 32 100 0.0 0.0 0.00 0.00 0.00 84 1007.2
20260905212726 32 100 0.0 0.0 0.00 0.00 0.00 80 1006.8
20260905212225 32 100 0.0 0.0 0.00 0.00 0.00 71 1006.3
20260905211725 32 164 0.0 0.0 0.00 0.00 0.00 72 1006.7
20260905211220 32 164 0.0 0.0 0.00 0.00 0.00 74 1006.5
20260905210718 33 77 0.0 0.0 0.00 0.00 0.00 71 1006.5
20260905210217 33 77 0.0 0.0 0.00 0.00 0.00 72 1006.7
20260905205710 33 77 0.0 0.0 0.00 0.00 0.00 72 1006.6
20260905205210 33 77 0.0 0.0 0.00 0.00 0.00 76 1006.8
20260905204705 33 44 0.0 0.0 0.00 0.00 0.00 68 1006.7
20260905204200 34 79 0.0 1.6 0.00 0.00 0.00 69 1006.3
20260905203700 35 52 8.0 9.7 0.00 0.00 0.00 61 1006.3
20260905203155 34 70 1.6 1.6 0.00 0.00 0.00 69 1006.5
20260905202651 36 157 0.0 1.6 0.00 0.00 0.00 72 1006.3
20260905202146 36 95 0.0 0.0 0.00 0.00 0.00 64 1006.5
20260905201642 35 106 0.0 0.0 0.00 0.00 0.00 69 1006.8
20260905201141 35 220 1.6 3.2 0.00 0.00 0.00 63 1006.8
20260905200637 35 129 0.0 1.6 0.00 0.00 0.00 69 1006.9
20260905200132 33 214 0.0 0.0 0.00 0.00 0.00 72 1006.6
20260905195625 33 214 0.0 1.6 0.00 0.00 0.00 70 1006.9
20260905195120 34 178 0.0 0.0 0.00 0.00 0.00 66 1006.7
20260905194615 35 208 0.0 1.6 0.00 0.00 0.00 66 1007.0
20260905194114 35 38 1.6 1.6 0.00 0.00 0.00 62 1007.2
20260905193609 35 202 4.8 4.8 0.00 0.00 0.00 66 1007.1
20260905193104 35 178 1.6 1.6 0.00 0.00 0.00 61 1007.4
20260905192600 36 152 1.6 1.6 0.00 0.00 0.00 59 1007.0
20260905192056 35 357 0.0 1.6 0.00 0.00 0.00 63 1007.2
20260905191554 35 162 0.0 1.6 0.00 0.00 0.00 61 1007.4
20260905191054 35 263 6.4 6.4 0.00 0.00 0.00 61 1007.5
20260905190552 35 260 3.2 3.2 0.00 0.00 0.00 63 1007.6
20260905190051 36 222 3.2 4.8 0.00 0.00 0.00 65 1007.7
20260905185550 35 134 1.6 3.2 0.00 0.00 0.00 66 1007.9
20260905185049 35 202 4.8 4.8 0.00 0.00 0.00 62 1008.0
20260905184544 35 225 4.8 6.4 0.00 0.00 0.00 62 1008.0
20260905184043 35 234 1.6 3.2 0.00 0.00 0.00 62 1007.8
20260905183537 35 253 8.0 11.3 0.00 0.00 0.00 61 1008.1
20260905183033 35 31 1.6 1.6 0.00 0.00 0.00 63 1008.3
20260905182532 35 219 3.2 3.2 0.00 0.00 0.00 65 1008.2
20260905182026 35 185 4.8 4.8 0.00 0.00 0.00 64 1008.5
20260905181521 35 286 8.0 11.3 0.00 0.00 0.00 64 1008.5
20260905181020 34 242 4.8 4.8 0.00 0.00 0.00 64 1008.5
20260905180515 34 252 6.4 9.7 0.00 0.00 0.00 67 1008.9
20260905180011 35 235 4.8 4.8 0.00 0.00 0.00 63 1008.8
20260905175510 34 180 3.2 3.2 0.00 0.00 0.00 68 1008.9
20260905175006 35 184 0.0 1.6 0.00 0.00 0.00 68 1009.0
20260905174501 34 221 0.0 0.0 0.00 0.00 0.00 68 1008.9
20260905173957 34 248 6.4 11.3 0.00 0.00 0.00 68 1008.9
20260905173453 34 264 12.9 17.7 0.00 0.00 0.00 68 1009.2
20260905172948 34 119 0.0 1.6 0.00 0.00 0.00 69 1009.2
20260905172446 33 198 3.2 3.2 0.00 0.00 0.00 72 1009.2
20260905171942 33 276 6.4 6.4 0.00 0.00 0.00 75 1009.3
20260905171438 33 288 6.4 9.7 0.00 0.00 0.00 73 1009.4
20260905170934 33 286 9.7 11.3 0.00 0.00 0.00 72 1009.3
20260905170430 33 279 6.4 6.4 0.00 0.00 0.00 73 1009.5
20260905165930 33 241 3.2 4.8 0.00 0.00 0.00 74 1009.6
20260905165425 33 319 4.8 6.4 0.00 0.00 0.00 73 1009.6
20260905164920 33 270 11.3 12.9 0.00 0.00 0.00 74 1009.8
20260905164414 33 297 1.6 3.2 0.00 0.00 0.00 75 1009.5
20260905163909 33 171 1.6 3.2 0.00 0.00 0.00 77 1009.8
20260905163406 33 185 3.2 3.2 0.00 0.00 0.00 78 1009.9
20260905162902 32 174 3.2 6.4 0.00 0.00 0.00 77 1009.9
20260905162401 33 275 4.8 4.8 0.00 0.00 0.00 75 1010.0
20260905161857 32 263 8.0 11.3 0.00 0.00 0.00 77 1010.3
20260905161356 32 271 11.3 14.5 0.00 0.00 0.00 77 1010.3
20260905160854 32 188 6.4 9.7 0.00 0.00 0.00 80 1010.2
20260905160348 32 328 3.2 3.2 0.00 0.00 0.00 78 1010.5
20260905155843 32 242 8.0 11.3 0.00 0.00 0.00 79 1010.5
20260905155342 32 204 9.7 11.3 0.00 0.00 0.00 78 1010.7
20260905154837 32 215 9.7 11.3 0.00 0.00 0.00 79 1010.5
20260905154332 32 30 8.0 9.7 0.00 0.00 0.00 80 1010.7
20260905153827 32 152 1.6 3.2 0.00 0.00 0.00 79 1010.5
20260905153324 31 260 6.4 11.3 0.00 0.00 0.00 79 1010.7
20260905152823 31 263 4.8 6.4 0.00 0.00 0.00 80 1010.5
20260905152322 31 213 3.2 4.8 0.00 0.00 0.00 82 1010.7
20260905151817 31 243 9.7 12.9 0.00 0.00 0.00 81 1010.6
20260905151313 32 146 1.6 4.8 0.00 0.00 0.00 81 1010.4
20260905150813 31 205 3.2 4.8 0.00 0.00 0.00 83 1010.4
20260905150307 31 211 4.8 4.8 0.00 0.00 0.00 82 1010.5
20260905145804 31 229 9.7 17.7 0.00 0.00 0.00 81 1010.6
20260905145259 31 210 4.8 4.8 0.00 0.00 0.00 84 1010.6
20260905144758 31 266 3.2 4.8 0.00 0.00 0.00 84 1010.8
20260905144254 31 255 8.0 12.9 0.00 0.00 0.00 84 1010.7
20260905143752 30 177 4.8 9.7 0.00 0.00 0.00 84 1010.8
20260905143247 30 193 8.0 9.7 0.00 0.00 0.00 86 1010.8
20260905142745 30 259 6.4 11.3 0.00 0.00 0.00 85 1010.7
20260905142240 30 240 1.6 3.2 0.00 0.00 0.00 86 1010.8
20260905141736 30 217 3.2 4.8 0.00 0.00 0.00 87 1010.9
20260905141232 30 154 1.6 3.2 0.00 0.00 0.00 87 1010.9
20260905140727 30 259 8.0 11.3 0.00 0.00 0.00 86 1011.0
20260905140227 30 226 9.7 12.9 0.00 0.00 0.00 87 1011.0
20260905135720 30 150 4.8 9.7 0.00 0.00 0.00 87 1010.8
20260905135217 30 178 1.6 3.2 0.00 0.00 0.00 89 1010.8
20260905134715 29 234 6.4 9.7 0.00 0.00 0.00 89 1010.8
20260905134210 29 258 3.2 4.8 0.00 0.00 0.00 89 1011.0
20260905133705 28 230 3.2 4.8 0.00 0.00 0.00 90 1011.2
20260905133200 28 249 9.7 12.9 0.00 0.00 0.00 90 1011.1
20260905132658 28 276 8.0 9.7 0.00 0.00 0.00 91 1011.1
20260905132154 28 244 8.0 11.3 0.00 0.00 0.00 91 1011.1
20260905131643 28 351 4.8 6.4 0.00 0.00 0.00 92 1010.9
20260905131138 28 271 4.8 9.7 0.00 0.00 0.00 93 1011.2
20260905130633 27 259 3.2 4.8 0.00 0.00 0.00 94 1011.3
20260905130132 27 253 8.0 12.9 0.00 0.00 0.00 94 1011.2